Weather History for Barksdale AFB, LA

Change the Weather History Date:

Wednesday, January 2, 2013

  Actual Average Record
Temperature  
Mean Temperature 39 °F -  
Max Temperature 41 °F 56 °F 75 °F (2000)
Min Temperature 36 °F 37 °F 23 °F (2011)
Degree Days  
Heating Degree Days 26    
Moisture  
Dew Point 34 °F    
Average Humidity 81    
Maximum Humidity 87    
Minimum Humidity 76    
Precipitation  
Precipitation 0.00 in - - ()
Sea Level Pressure  
Sea Level Pressure 30.27 in    
Wind  
Wind Speed 9 mph (NNW)    
Max Wind Speed 12 mph    
Max Gust Speed -    
Visibility 10 miles    
Events      
Averages and records for this station are not official NWS values.
T = Trace of Precipitation, MM = Missing Value Source: NWS Daily Summary

Daily Weather History Graph

Daily Weather History Graph

Search for Another Location

Airport:

Trip Planner

Search our weather history database for the weather conditions in past years. The results will help you decide how hot, cold, wet, or windy it might be!

Date:

Astronomy

Jan. 02, 2013 Rise Set
Actual Time 7:16 AM CST 5:21 PM CST
Civil Twilight 6:49 AM CST 5:48 PM CST
Nautical Twilight 6:19 AM CST 6:18 PM CST
Astronomical Twilight 5:49 AM CST 6:48 PM CST
Moon 10:34 PM CST (1/2) 10:16 AM CST (1/2)
Length of Visible Light 10h 58m
Length of Day
10h 04m
Waning Gibbous, 75% of the Moon is Illuminated
Jan 2
Waning Gibbous
Jan 4
Last Quarter
Jan 11
New
Jan 18
First Quarter
Jan 26
Full

Hourly Weather History & Observations

Time (CST) Temp. Windchill Dew Point Humidity Pressure Visibility Wind Dir Wind Speed Gust Speed Precip Events Conditions
12:23 AM 41.0 °F 34.7 °F 37.4 °F 87% 30.22 in 10.0 mi NW 10.4 mph - N/A   Overcast
12:55 AM 41.4 °F 35.7 °F 36.3 °F 82% 30.22 in 10.0 mi NW 9.2 mph - N/A   Overcast
1:21 AM 41.0 °F 34.7 °F 35.6 °F 81% 30.23 in 10.0 mi NW 10.4 mph - N/A   Overcast
1:55 AM 40.8 °F 34.5 °F 35.4 °F 81% 30.24 in 10.0 mi NNW 10.4 mph - N/A   Overcast
2:55 AM 40.1 °F 33.6 °F 34.9 °F 82% 30.26 in 10.0 mi NW 10.4 mph - N/A   Overcast
3:55 AM 39.2 °F 34.2 °F 34.3 °F 83% 30.25 in 10.0 mi NW 6.9 mph - N/A   Overcast
4:28 AM 39.2 °F 33.0 °F 33.8 °F 81% 30.25 in 10.0 mi NNW 9.2 mph - N/A   Overcast
4:55 AM 38.5 °F 32.7 °F 33.8 °F 83% 30.25 in 10.0 mi NNW 8.1 mph - N/A   Overcast
5:12 AM 39.2 °F 33.0 °F 33.8 °F 81% 30.25 in 10.0 mi NNW 9.2 mph - N/A   Overcast
5:55 AM 37.9 °F 31.5 °F 33.4 °F 84% 30.25 in 10.0 mi NNW 9.2 mph - N/A   Overcast
6:55 AM 37.8 °F 30.2 °F 32.5 °F 81% 30.27 in 10.0 mi NNW 11.5 mph - N/A   Overcast
7:55 AM 37.8 °F 32.5 °F 32.9 °F 83% 30.27 in 10.0 mi NW 6.9 mph - N/A   Overcast
8:44 AM 37.4 °F 30.3 °F 32.0 °F 81% 30.27 in 10.0 mi NNW 10.4 mph - N/A   Overcast
8:55 AM 37.9 °F 31.5 °F 33.1 °F 83% 30.28 in 10.0 mi NNW 9.2 mph - N/A   Overcast
9:55 AM 38.5 °F 32.7 °F 33.4 °F 82% 30.31 in 10.0 mi NNW 8.1 mph - N/A   Overcast
10:55 AM 38.8 °F 32.6 °F 33.8 °F 82% 30.30 in 10.0 mi NW 9.2 mph - N/A   Overcast
11:55 AM 39.0 °F 32.8 °F 34.0 °F 82% 30.28 in 10.0 mi NW 9.2 mph - N/A   Overcast
12:55 PM 39.4 °F 33.8 °F 34.2 °F 82% 30.24 in 10.0 mi NNW 8.1 mph - N/A   Overcast
1:17 PM 39.2 °F 32.5 °F 33.8 °F 81% 30.24 in 10.0 mi NNW 10.4 mph - N/A   Overcast
1:24 PM 39.2 °F 33.0 °F 33.8 °F 81% 30.24 in 10.0 mi NW 9.2 mph - N/A   Overcast
1:55 PM 40.1 °F 34.1 °F 34.3 °F 80% 30.25 in 10.0 mi North 9.2 mph - 0.00 in   Overcast
2:21 PM 41.0 °F 35.8 °F 33.8 °F 76% 30.25 in 10.0 mi NNW 8.1 mph - N/A   Overcast
2:55 PM 40.5 °F 34.6 °F 34.2 °F 78% 30.26 in 10.0 mi NNW 9.2 mph - N/A   Overcast
3:55 PM 40.6 °F 36.0 °F 34.2 °F 78% 30.27 in 10.0 mi NNW 6.9 mph - N/A   Overcast
4:55 PM 40.3 °F 34.9 °F 33.8 °F 78% 30.27 in 10.0 mi NNW 8.1 mph - N/A   Overcast
5:55 PM 40.1 °F 36.1 °F 34.5 °F 80% 30.27 in 10.0 mi Variable 5.8 mph - N/A   Overcast
6:55 PM 39.9 °F 35.1 °F 33.1 °F 77% 30.28 in 10.0 mi NW 6.9 mph - N/A   Overcast
7:55 PM 39.7 °F 35.6 °F 32.9 °F 77% 30.30 in 10.0 mi NW 5.8 mph - N/A   Overcast
8:55 PM 39.0 °F 33.4 °F 32.7 °F 78% 30.31 in 10.0 mi NW 8.1 mph - N/A   Overcast
9:55 PM 37.9 °F 33.5 °F 32.5 °F 81% 30.31 in 10.0 mi NNW 5.8 mph - N/A   Mostly Cloudy
10:02 PM 37.4 °F 32.8 °F 32.0 °F 81% 30.31 in 10.0 mi NNW 5.8 mph - N/A   Scattered Clouds
10:14 PM 37.4 °F 32.8 °F 32.0 °F 81% 30.32 in 10.0 mi NW 5.8 mph - N/A   Mostly Cloudy
10:55 PM 37.2 °F 31.9 °F 32.5 °F 83% 30.33 in 10.0 mi NNW 6.9 mph - N/A   Mostly Cloudy
11:03 PM 37.4 °F 32.1 °F 32.0 °F 81% 30.33 in 10.0 mi NNW 6.9 mph - N/A   Scattered Clouds
11:55 PM 36.0 °F 33.3 °F 32.2 °F 86% 30.34 in 10.0 mi NW 3.5 mph - N/A   Clear